Wind_Speed
10 11 10 10 10 9 9 9 9 8 7 7 7 6 6 5 4 3 2 2 1 2 3 3 3 3 3 2 1 1 1 1 1 1 2 2 3 3 3 3 4 5 5
10 10 10 10 9 9 9 8 8 8 7 7 7 7 6 5 4 3 3 2 1 2 2 2 3 3 3 2 2 1 1 1 0 0 1 2 3 3 3 4 4 4 5
10 10 10 10 10 9 9 8 8 8 7 7 8 7 7 6 5 4 3 2 2 1 2 2 3 3 2 2 2 1 1 1 1 1 1 2 3 4 4 5 5 5 5
9 9 9 9 9 9 9 9 8 9 8 7 8 8 7 6 5 4 3 2 2 1 2 2 2 3 2 2 1 1 1 1 2 2 2 3 3 4 5 6 6 6 6
9 9 9 9 9 9 9 9 8 8 8 8 8 8 7 6 5 5 4 3 2 2 1 1 2 2 2 2 2 1 1 2 2 2 3 3 3 4 5 6 6 7 7
9 9 9 10 10 10 11 10 9 8 8 8 8 8 7 6 6 6 5 4 3 3 2 2 2 2 3 3 2 2 2 2 2 3 3 3 4 5 5 6 7 7 8
9 9 9 10 11 11 11 11 10 9 8 7 8 8 7 7 6 6 6 5 5 4 3 3 4 4 3 3 3 3 3 3 4 4 4 4 5 5 6 6 7 7 7
9 9 9 10 10 10 10 10 10 8 8 8 8 8 8 7 7 7 7 7 6 5 5 5 5 5 5 4 5 5 5 5 5 6 6 6 6 6 7 7 8 8 9
9 9 9 9 10 10 10 10 10 9 9 9 9 9 8 8 8 8 8 9 8 8 7 6 6 6 6 6 6 6 6 7 7 7 7 7 7 8 9 9 10 10 10
9 9 10 9 9 10 10 11 11 10 10 10 10 10 10 10 9 9 9 9 9 9 8 7 7 7 7 7 8 8 8 9 9 9 9 9 10 10 10 11 11 11 12
8 9 10 10 10 10 11 10 11 11 11 11 11 11 11 11 11 11 11 10 9 9 8 8 8 8 8 8 8 9 9 10 9 9 10 10 10 11 11 12 13 13 14
8 9 9 10 11 11 11 11 11 11 11 11 11 11 11 11 11 11 11 10 10 10 9 9 9 9 9 10 10 10 10 10 10 11 11 11 11 11 12 13 14 14 15
9 9 9 10 9 10 10 11 11 12 12 12 12 11 11 11 11 10 10 10 10 10 9 10 11 11 11 11 11 11 11 11 11 11 11 12 12 13 14 15 15 16 17
8 8 8 8 9 9 10 11 12 11 12 12 12 12 12 11 11 11 11 11 11 11 11 11 12 12 12 12 12 12 13 13 13 13 13 14 14 15 16 17 17 18 18
8 8 9 9 9 9 10 11 11 11 12 11 11 11 12 12 12 12 12 12 13 13 13 13 13 13 13 14 14 14 15 15 15 15 15 16 17 17 18 18 19 19 20
9 10 10 9 9 10 10 11 11 11 11 11 11 12 12 12 12 13 13 13 13 14 14 14 14 14 14 14 15 15 16 16 16 17 17 18 18 19 19 20 20 20 21
9 9 10 10 10 10 10 10 11 11 11 11 11 12 12 12 13 14 14 14 14 14 15 15 15 16 16 16 17 17 17 17 17 18 18 19 20 20 21 21 22 22 23
10 11 10 10 10 11 11 11 12 12 11 11 12 12 13 14 14 14 14 14 15 15 15 15 15 15 16 16 17 18 18 19 19 19 20 21 21 21 21 22 23 23 24
11 11 11 11 11 11 11 11 12 12 12 12 12 13 13 14 13 14 14 14 14 14 15 15 15 16 16 17 18 19 19 19 19 20 21 21 21 22 23 24 25 25 26
12 11 11 12 12 12 12 12 12 12 13 13 12 12 12 13 13 14 15 15 15 15 15 15 16 17 17 18 18 19 19 20 20 21 21 22 23 23 24 25 26 27 28
13 12 12 12 12 13 13 13 13 13 13 13 13 13 13 13 14 14 15 15 15 15 16 17 17 17 17 18 19 20 20 21 21 22 23 23 24 24 25 26 27 28 30
14 13 13 13 13 13 13 13 14 14 14 14 13 13 13 14 14 15 15 15 15 15 16 16 17 18 18 19 20 21 21 22 22 23 24 24 25 26 27 28 29 30 30
15 14 14 14 14 13 14 14 14 14 14 14 14 14 14 14 14 14 15 15 15 16 16 17 18 18 19 20 21 22 22 23 24 25 25 26 27 28 28 29 30 31 31
15 15 15 15 15 15 14 14 14 14 14 14 14 14 14 14 14 14 15 16 16 17 17 18 18 19 21 21 22 23 24 25 25 26 27 28 29 29 30 31 31 32 32
17 16 16 16 16 16 16 16 16 16 15 15 15 15 15 15 16 16 17 17 17 18 18 19 20 21 22 23 24 25 25 26 27 27 28 28 29 30 31 31 32 33 34
18 17 17 17 17 17 17 17 17 17 17 16 16 16 16 17 17 17 18 18 18 19 19 20 21 21 23 24 25 26 27 27 28 28 28 28 29 30 31 31 32 34 35
Wind_Direction
240 237 240 247 249 244 242 239 237 232 228 226 224 223 224 225 226 241 272 286 330 351 0 0 5 11 14 24 38 21 31 49 126 145 164 178 185 191 198 209 215 219 225
237 239 242 248 245 241 241 239 233 227 229 230 220 216 215 221 231 248 268 282 321 343 354 359 9 11 14 20 26 27 24 27 36 184 206 204 210 216 222 231 234 234 237
239 243 245 246 240 233 233 233 226 226 229 234 225 213 213 222 234 244 248 272 293 332 349 358 6 10 25 35 35 28 22 359 331 286 272 256 242 244 248 248 249 249 250
239 238 240 240 237 230 230 231 231 228 228 229 220 215 219 225 228 232 240 265 274 295 317 344 4 9 13 18 18 12 359 331 307 292 283 269 259 258 260 259 260 258 258
240 237 238 241 238 235 231 231 234 229 226 220 217 219 221 225 224 228 238 251 265 281 295 337 2 3 4 2 359 337 333 324 305 293 288 279 271 266 264 264 265 265 267
244 244 244 242 237 235 230 229 227 222 217 215 217 218 221 226 230 232 235 240 255 264 270 293 322 338 341 343 348 332 320 317 310 305 293 279 277 276 274 274 273 273 272
248 247 244 242 241 238 232 230 229 224 218 218 222 223 223 227 231 235 237 240 251 257 265 283 300 309 310 317 321 315 312 306 304 302 294 285 282 282 282 282 281 282 280
250 244 242 240 238 234 231 229 230 227 225 223 226 227 230 232 235 240 243 245 253 255 264 279 289 295 294 296 297 298 297 295 296 293 289 287 284 285 285 285 285 286 286
244 240 238 238 233 230 228 232 234 230 228 228 233 234 235 239 241 245 247 248 256 259 265 276 283 285 288 292 293 292 290 289 289 290 288 285 285 286 285 283 284 285 287
239 237 235 234 234 233 233 234 236 238 236 234 237 240 242 244 248 253 254 257 260 259 264 274 282 286 290 291 293 291 292 292 290 288 286 285 284 285 284 284 285 285 285
235 236 236 234 236 237 236 236 238 239 238 236 238 242 245 246 250 254 254 257 257 259 263 271 277 284 290 294 295 294 292 293 293 292 291 289 289 289 288 287 286 287 286
233 234 235 236 239 239 236 236 239 240 241 240 240 242 244 246 251 254 254 257 258 258 260 267 273 279 287 293 297 297 297 293 293 294 294 290 289 289 289 289 288 287 287
235 238 239 239 241 239 238 237 239 240 242 243 242 243 244 245 250 251 253 256 256 257 263 268 274 277 282 285 290 293 296 296 296 296 294 292 290 289 289 289 289 289 288
234 235 235 240 240 239 238 238 240 241 241 243 241 241 242 244 247 252 255 258 260 263 266 271 276 279 282 284 286 289 291 292 292 294 294 292 290 290 289 289 289 289 288
236 241 244 245 242 238 239 239 241 243 244 243 241 243 243 246 249 256 259 262 263 264 269 272 275 277 280 282 285 288 289 290 290 291 292 292 292 292 291 290 290 290 289
245 246 244 246 244 240 239 240 242 243 243 243 244 246 248 251 255 257 261 262 264 266 269 273 276 277 280 282 285 286 287 288 288 290 291 292 292 292 292 291 291 291 291
247 249 249 249 245 243 243 242 242 242 246 247 247 249 250 254 258 260 263 264 266 267 270 273 275 276 278 280 283 286 286 288 288 290 290 291 292 292 291 291 290 291 292
253 254 254 252 249 249 249 246 246 245 246 250 250 252 254 258 260 263 265 266 267 270 273 273 276 278 279 282 286 286 286 288 289 291 292 292 292 293 293 292 292 293 294
258 256 254 253 251 251 253 252 251 250 251 254 258 259 261 262 265 266 267 268 269 272 274 276 276 279 281 283 287 290 290 290 291 292 293 293 293 293 293 292 292 293 294
258 256 255 256 256 255 255 256 255 256 256 258 259 260 262 265 268 269 269 269 271 272 273 276 279 281 283 285 287 289 290 290 292 293 293 293 293 293 293 293 294 294 295
256 255 256 256 255 254 254 255 256 257 257 258 257 258 262 267 269 271 272 272 272 274 276 278 281 284 286 287 289 291 291 292 293 294 294 294 294 294 295 296 296 296 296
254 256 256 255 255 256 258 258 258 257 259 261 260 261 265 269 270 273 273 272 271 274 278 280 282 284 286 289 292 293 293 293 294 295 295 295 295 296 297 297 297 298 298
253 255 255 253 254 256 258 260 259 258 259 260 261 265 268 271 273 274 274 273 273 275 279 282 284 286 288 288 291 293 293 295 296 297 296 296 296 297 297 298 299 299 300
254 254 254 252 255 257 258 260 260 259 260 262 263 266 268 271 273 275 277 277 275 277 280 282 285 288 289 291 292 293 294 295 296 296 297 297 297 297 298 299 300 300 301
255 255 256 255 257 258 258 258 259 260 261 263 265 266 270 273 275 277 279 280 280 280 282 284 286 289 292 292 294 295 296 297 297 298 298 298 298 298 299 300 300 302 303
254 254 255 256 258 258 258 257 258 259 261 264 266 268 271 274 276 278 279 280 281 282 284 286 288 290 293 295 296 297 297 298 298 299 299 299 299 300 301 301 302 303 303
Height
5866 5867 5868 5869 5869 5870 5871 5871 5872 5873 5874 5874 5875 5876 5877 5877 5877 5877 5877 5876 5876 5875 5874 5873 5872 5871 5870 5870 5869 5868 5868 5868 5867 5867 5867 5868 5868 5868 5868 5868 5868 5868 5868
5865 5866 5866 5867 5868 5868 5869 5870 5871 5872 5872 5873 5874 5875 5876 5876 5877 5876 5876 5876 5875 5875 5874 5873 5872 5871 5870 5870 5869 5869 5868 5868 5868 5868 5867 5868 5868 5868 5868 5868 5868 5867 5868
5863 5864 5865 5866 5866 5867 5867 5869 5870 5871 5871 5872 5873 5874 5875 5875 5876 5876 5876 5876 5875 5874 5874 5873 5872 5872 5871 5870 5869 5869 5869 5868 5868 5868 5868 5868 5868 5868 5868 5867 5867 5867 5867
5861 5862 5863 5864 5865 5865 5866 5867 5868 5869 5870 5871 5872 5873 5874 5874 5875 5875 5875 5875 5875 5874 5874 5873 5873 5872 5871 5870 5870 5869 5869 5868 5868 5867 5867 5867 5867 5867 5867 5867 5866 5866 5866
5860 5860 5862 5862 5863 5864 5865 5866 5867 5868 5869 5870 5870 5872 5873 5873 5874 5874 5875 5875 5875 5874 5874 5873 5873 5872 5871 5870 5869 5869 5868 5868 5868 5867 5867 5866 5866 5866 5866 5866 5865 5865 5864
5858 5859 5860 5861 5862 5863 5864 5865 5866 5867 5868 5868 5869 5870 5872 5872 5873 5874 5874 5874 5874 5874 5873 5873 5872 5872 5871 5870 5869 5869 5868 5868 5867 5867 5866 5866 5866 5865 5865 5864 5864 5863 5863
5856 5857 5858 5859 5860 5861 5862 5863 5864 5865 5866 5867 5868 5869 5870 5871 5872 5872 5873 5873 5873 5873 5873 5872 5872 5871 5871 5870 5869 5868 5868 5867 5867 5866 5866 5865 5865 5864 5863 5863 5862 5861 5861
5854 5855 5856 5857 5858 5859 5860 5862 5863 5864 5865 5866 5867 5868 5869 5870 5870 5871 5871 5872 5872 5872 5872 5871 5871 5870 5870 5869 5868 5868 5867 5866 5866 5865 5865 5864 5863 5863 5862 5861 5861 5860 5859
5852 5852 5854 5855 5856 5857 5859 5860 5861 5863 5864 5865 5866 5867 5867 5868 5869 5870 5870 5870 5870 5870 5870 5870 5870 5869 5868 5868 5867 5866 5866 5865 5864 5864 5863 5862 5862 5861 5860 5859 5859 5858 5857
5849 5850 5852 5853 5854 5856 5857 5858 5859 5861 5862 5863 5864 5865 5866 5867 5867 5868 5868 5868 5868 5868 5868 5868 5868 5867 5867 5866 5866 5865 5864 5863 5863 5862 5861 5860 5859 5858 5858 5857 5856 5855 5854
5848 5849 5850 5851 5852 5853 5855 5856 5857 5859 5860 5861 5862 5863 5863 5864 5865 5866 5866 5866 5866 5866 5866 5866 5866 5866 5865 5865 5864 5863 5862 5862 5861 5860 5859 5858 5857 5856 5855 5854 5853 5852 5851
5846 5847 5848 5849 5850 5851 5852 5854 5855 5856 5857 5858 5859 5860 5861 5862 5863 5863 5863 5864 5864 5864 5864 5864 5864 5863 5863 5863 5862 5861 5860 5859 5858 5857 5856 5855 5854 5853 5852 5851 5850 5848 5847
5844 5845 5846 5847 5848 5849 5850 5851 5853 5854 5855 5856 5857 5857 5858 5859 5860 5860 5861 5861 5861 5861 5861 5861 5861 5861 5860 5860 5859 5858 5858 5857 5855 5854 5853 5852 5851 5850 5848 5847 5846 5844 5843
5842 5843 5844 5845 5846 5847 5848 5849 5850 5851 5852 5853 5854 5855 5856 5856 5857 5858 5858 5858 5858 5859 5859 5858 5858 5858 5857 5857 5856 5855 5854 5853 5852 5851 5850 5848 5847 5846 5844 5843 5841 5840 5838
5840 5841 5842 5843 5843 5844 5845 5846 5847 5848 5849 5850 5851 5852 5853 5853 5854 5855 5855 5855 5855 5855 5855 5855 5855 5854 5854 5853 5852 5852 5851 5850 5849 5847 5846 5844 5843 5841 5840 5838 5837 5835 5833
5839 5839 5840 5840 5841 5842 5843 5844 5845 5846 5847 5848 5848 5849 5850 5850 5851 5851 5852 5852 5852 5852 5852 5851 5851 5851 5850 5849 5849 5848 5847 5845 5844 5843 5841 5840 5838 5836 5834 5833 5831 5829 5827
5836 5837 5837 5838 5838 5839 5840 5841 5842 5843 5844 5844 5845 5846 5847 5847 5848 5848 5848 5848 5848 5848 5848 5847 5847 5846 5846 5845 5844 5843 5842 5841 5839 5838 5836 5835 5833 5831 5829 5827 5825 5823 5821
5834 5834 5834 5835 5836 5837 5837 5838 5839 5840 5841 5841 5842 5842 5843 5843 5844 5844 5844 5844 5844 5844 5844 5843 5843 5842 5841 5841 5840 5838 5837 5835 5834 5833 5831 5829 5827 5825 5823 5821 5819 5816 5814
5830 5831 5832 5832 5833 5834 5834 5835 5836 5837 5837 5838 5839 5839 5839 5840 5840 5840 5840 5840 5840 5840 5839 5839 5838 5837 5837 5836 5835 5833 5832 5830 5829 5827 5825 5823 5821 5819 5816 5814 5812 5810 5807
5827 5828 5828 5829 5830 5830 5831 5832 5832 5833 5834 5834 5835 5835 5835 5836 5836 5836 5836 5836 5836 5835 5835 5834 5834 5833 5832 5831 5829 5828 5826 5825 5823 5821 5819 5817 5815 5813 5810 5807 5805 5802 5799
5823 5824 5824 5825 5826 5827 5827 5828 5829 5830 5830 5830 5831 5831 5831 5832 5832 5832 5831 5831 5831 5831 5830 5830 5829 5828 5827 5826 5824 5823 5821 5819 5817 5815 5813 5811 5808 5806 5803 5800 5797 5794 5791
5819 5820 5821 5821 5822 5823 5824 5824 5825 5825 5826 5826 5827 5827 5827 5827 5827 5827 5827 5827 5826 5826 5825 5825 5824 5823 5822 5821 5819 5817 5815 5813 5811 5809 5807 5804 5802 5799 5796 5793 5789 5786 5783
5815 5816 5816 5817 5818 5819 5819 5820 5820 5821 5822 5822 5823 5823 5823 5823 5823 5823 5822 5822 5822 5821 5820 5820 5819 5818 5816 5815 5813 5811 5809 5807 5805 5802 5800 5797 5794 5791 5788 5785 5781 5778 5774
5810 5811 5812 5813 5814 5814 5815 5816 5816 5817 5817 5818 5818 5819 5819 5819 5819 5818 5818 5817 5817 5816 5815 5815 5813 5812 5811 5809 5807 5805 5803 5800 5798 5795 5792 5790 5787 5784 5780 5777 5773 5770 5766
5805 5806 5807 5808 5808 5809 5810 5811 5812 5812 5813 5813 5814 5814 5814 5814 5814 5814 5813 5812 5812 5811 5810 5809 5808 5807 5805 5803 5801 5799 5796 5794 5791 5788 5785 5782 5779 5776 5773 5769 5765 5761 5757
5800 5801 5802 5803 5803 5804 5805 5806 5806 5807 5808 5808 5809 5809 5809 5809 5809 5808 5808 5807 5806 5805 5805 5803 5802 5800 5799 5796 5794 5792 5789 5786 5784 5781 5777 5774 5771 5768 5764 5761 5757 5753 5748